DW4563 Assen NL current weather conditions

sailwx.info

Wind from 013 at 0 knots gusting 8

Air temperature 15.0° C
Dewpoint 7.8° C

Last reported at 2018-Oct-18 15:07 UTC.
Time now 2018-Oct-18 16:12 UTC

Location: N 53°01' E 006°35'.
View on Google Maps.

See reports from other nearby stations

  
Tides and Currents Weather Stations Pressure Air Temp Water Temp Dewpoint Dewpoint Depression Visibility Wind Speed Wind Dir Waves Ship Positions
date/time (UTC)wind fromknots sea level pressurealtimeterstation pressurevisibilityair tempwater tempwave heightnotes
2018-Oct-18 15:07 013 0 gusting 8 15.0
2018-Oct-18 14:47 023 1 gusting 4 14.4
2018-Oct-18 14:32 009 15.0
2018-Oct-18 14:17 019 14.4
2018-Oct-18 14:12 028 0 gusting 8 15.0
2018-Oct-18 14:07 022 2 gusting 8 15.0
2018-Oct-18 14:02 017 0 gusting 10 15.0
2018-Oct-18 13:42 012 0 gusting 6 15.6
2018-Oct-18 13:37 011 0 gusting 6 15.6
2018-Oct-18 13:32 008 0 gusting 7 15.6
2018-Oct-18 13:17 008 2 gusting 10 16.1
2018-Oct-18 13:12 006 0 gusting 5 16.1
2018-Oct-18 13:07 014 16.1
2018-Oct-18 13:02 034 0 gusting 6 15.6
2018-Oct-18 12:47 035 0 gusting 10 15.6
2018-Oct-18 12:42 041 15.6
2018-Oct-18 12:37 020 0 gusting 10 15.6
2018-Oct-18 12:32 020 1 gusting 8 15.6
2018-Oct-18 12:17 025 1 gusting 8 15.6
2018-Oct-18 12:07 031 0 gusting 5 15.6
2018-Oct-18 12:02 349 15.0
2018-Oct-18 11:47 354 0 gusting 7 15.0
2018-Oct-18 11:42 025 0 gusting 7 15.0
2018-Oct-18 11:32 022 1 gusting 10 15.6
2018-Oct-18 11:17 033 2 gusting 7 15.6
2018-Oct-18 11:12 012 0 gusting 7 15.0
2018-Oct-18 11:02 016 4 gusting 12 15.0
2018-Oct-18 10:47 005 0 gusting 6 15.0
2018-Oct-18 10:42 020 1 gusting 8 15.0
2018-Oct-18 10:37 013 1 gusting 8 15.0
2018-Oct-18 10:32 027 2 gusting 7 15.0
2018-Oct-18 10:17 026 0 gusting 6 15.0
2018-Oct-18 09:37 005 1 gusting 8 15.0
2018-Oct-18 09:32 009 0 gusting 8 15.0
2018-Oct-18 09:17 023 2 gusting 8 15.0
2018-Oct-18 09:12 014 1 gusting 8 15.0
2018-Oct-18 09:07 015 2 gusting 10 15.0
2018-Oct-18 09:02 007 1 gusting 10 14.4
2018-Oct-18 08:42 016 3 gusting 10 13.9
2018-Oct-18 08:32 012 1 gusting 6 13.9
2018-Oct-18 08:17 007 3 gusting 7 13.3
2018-Oct-18 08:12 019 0 gusting 7 13.3
2018-Oct-18 08:07 018 1 gusting 7 13.3
2018-Oct-18 08:02 030 0 gusting 8 13.3
2018-Oct-18 07:47 033 0 gusting 4 12.8
2018-Oct-18 07:37 350 0 gusting 4 12.2
2018-Oct-18 07:32 011 12.2
2018-Oct-18 07:17 008 12.2
2018-Oct-18 07:12 341 12.2
2018-Oct-18 07:07 355 0 gusting 2 12.2
2018-Oct-18 06:47 007 12.2
2018-Oct-18 06:42 314 12.2
2018-Oct-18 06:32 022 0 gusting 4 12.2
2018-Oct-18 06:02 015 0 gusting 4 12.8
2018-Oct-18 05:47 352 0 gusting 5 12.8
2018-Oct-18 05:37 351 0 gusting 6 12.8
2018-Oct-18 05:32 356 0 gusting 6 12.8
2018-Oct-18 05:12 358 0 gusting 4 12.8
2018-Oct-18 05:07 339 0 gusting 4 12.8
2018-Oct-18 05:02 006 13.3
2018-Oct-18 04:47 011 13.3
2018-Oct-18 04:32 012 13.3
2018-Oct-18 04:17 355 0 gusting 2 13.3
2018-Oct-18 04:12 010 13.3
2018-Oct-18 04:02 016 1 gusting 6 13.3
2018-Oct-18 03:32 313 12.8
2018-Oct-18 03:17 313 12.8
2018-Oct-18 03:12 313 12.8
2018-Oct-18 03:07 313 12.8
2018-Oct-18 03:02 313 12.8
2018-Oct-18 02:47 313 12.8
2018-Oct-18 02:37 313 12.2
2018-Oct-18 02:17 306 12.2
2018-Oct-18 02:07 279 12.2
2018-Oct-18 02:02 279 12.2
2018-Oct-18 01:42 279 12.2
2018-Oct-18 01:37 295 12.2
2018-Oct-18 01:32 294 12.2
2018-Oct-18 01:17 293 12.2
2018-Oct-18 01:12 281 12.2
2018-Oct-18 01:07 272 12.2
2018-Oct-18 01:02 005 11.7
2018-Oct-18 00:47 005 11.7
2018-Oct-18 00:42 005 11.7
2018-Oct-18 00:37 005 11.7
2018-Oct-18 00:32 005 11.7
2018-Oct-18 00:07 005 11.1
2018-Oct-18 00:02 005 11.1
2018-Oct-17 23:37 005 11.1
2018-Oct-17 23:17 005 11.1
2018-Oct-17 23:12 005 11.7
2018-Oct-17 23:02 005 11.7
2018-Oct-17 22:47 005 11.7
2018-Oct-17 22:37 005 11.7
2018-Oct-17 22:32 005 11.7
2018-Oct-17 22:12 005 11.7
2018-Oct-17 22:02 005 12.2
2018-Oct-17 21:42 005 12.2
2018-Oct-17 21:37 005 12.2
2018-Oct-17 21:12 005 12.2
2018-Oct-17 21:07 005 12.2
2018-Oct-17 21:02 005 12.2
2018-Oct-17 20:47 005 12.2
2018-Oct-17 20:42 005 12.8
2018-Oct-17 20:32 005 12.8
2018-Oct-17 20:17 005 12.8
2018-Oct-17 20:12 005 12.8
2018-Oct-17 20:02 005 13.3
2018-Oct-17 19:47 005 13.3
2018-Oct-17 19:37 005 13.3
2018-Oct-17 19:12 005 14.4
2018-Oct-17 18:47 012 15.0
2018-Oct-17 18:37 354 0 gusting 2 15.6
2018-Oct-17 18:32 020 15.6
2018-Oct-17 18:17 324 15.6
2018-Oct-17 18:07 326 16.1
2018-Oct-17 18:02 342 16.1
2018-Oct-17 17:47 330 0 gusting 5 16.1
2018-Oct-17 17:42 297 0 gusting 5 16.1
2018-Oct-17 17:37 337 0 gusting 4 16.7
2018-Oct-17 17:17 333 16.7
2018-Oct-17 17:12 326 16.7
2018-Oct-17 17:02 353 16.7
2018-Oct-17 16:47 317 16.7
2018-Oct-17 16:17 328 17.2
2018-Oct-17 16:12 324 1 gusting 7 17.2
2018-Oct-17 16:07 346 0 gusting 7 17.2
2018-Oct-17 16:02 337 1 gusting 7 17.2
2018-Oct-17 15:37 346 17.8
2018-Oct-17 15:17 351 0 gusting 6 18.3
2018-Oct-17 15:12 329 1 gusting 7 18.3
2018-Oct-17 15:02 332 1 gusting 7 18.9
2018-Oct-17 14:47 330 1 gusting 8 18.9
2018-Oct-17 14:42 326 1 gusting 7 18.9
2018-Oct-17 14:37 345 19.4
2018-Oct-17 14:32 328 1 gusting 4 19.4
2018-Oct-17 14:17 324 1 gusting 6 19.4
2018-Oct-17 13:47 302 19.4
2018-Oct-17 13:42 277 19.4
2018-Oct-17 13:37 280 2 gusting 7 19.4
2018-Oct-17 13:32 262 20.0
2018-Oct-17 13:17 253 20.6
2018-Oct-17 13:12 208 20.0
2018-Oct-17 13:02 268 1 gusting 6 20.0
2018-Oct-17 12:42 282 1 gusting 7 20.0
2018-Oct-17 12:32 291 20.0
2018-Oct-17 12:12 287 1 gusting 6 19.4
2018-Oct-17 12:02 287 1 gusting 6 19.4
2018-Oct-17 11:37 245 18.9
2018-Oct-17 11:17 268 19.4
2018-Oct-17 11:07 276 0 gusting 7 18.9
2018-Oct-17 11:02 276 2 gusting 7 18.9
2018-Oct-17 10:47 325 0 gusting 6 18.9
2018-Oct-17 10:42 329 1 gusting 6 18.9
2018-Oct-17 10:37 277 0 gusting 6 18.3
2018-Oct-17 10:32 304 0 gusting 5 18.3
2018-Oct-17 10:12 259 0 gusting 6 17.8
2018-Oct-17 10:07 297 0 gusting 6 17.2
2018-Oct-17 10:02 299 17.2
2018-Oct-17 09:47 317 1 gusting 6 16.7
2018-Oct-17 09:42 304 0 gusting 6 16.7
2018-Oct-17 09:37 299 0 gusting 6 16.7
2018-Oct-17 09:32 304 0 gusting 6 16.7
2018-Oct-17 09:12 280 16.7
2018-Oct-17 09:07 316 0 gusting 6 16.1
2018-Oct-17 08:47 275 16.1
2018-Oct-17 08:37 244 0 gusting 4 15.6
2018-Oct-17 08:17 196 0 gusting 2 15.0
2018-Oct-17 08:12 203 15.0
2018-Oct-17 08:02 207 14.4
2018-Oct-17 07:32 191 12.8
2018-Oct-17 07:17 190 12.2
2018-Oct-17 07:02 190 12.2
2018-Oct-17 06:42 190 12.2
2018-Oct-17 06:37 190 12.8
2018-Oct-17 06:32 190 12.8
2018-Oct-17 06:17 190 12.8
2018-Oct-17 06:12 190 12.8
2018-Oct-17 06:07 191 12.8
2018-Oct-17 06:02 182 12.8
2018-Oct-17 05:47 182 12.8
2018-Oct-17 05:37 182 13.3
2018-Oct-17 05:07 182 13.3
2018-Oct-17 05:02 182 13.3
2018-Oct-17 04:47 183 13.3
2018-Oct-17 04:42 183 13.9
2018-Oct-17 04:37 183 13.9
2018-Oct-17 04:17 184 13.9
2018-Oct-17 04:07 193 14.4
2018-Oct-17 04:02 163 14.4
2018-Oct-17 03:47 187 0 gusting 2 14.4
2018-Oct-17 03:42 191 0 gusting 2 14.4
2018-Oct-17 03:37 168 14.4
2018-Oct-17 03:32 200 1 gusting 2 14.4
2018-Oct-17 03:17 189 14.4
2018-Oct-17 03:12 187 15.0
2018-Oct-17 03:07 182 0 gusting 2 15.0
2018-Oct-17 03:02 189 15.0
2018-Oct-17 02:42 183 1 gusting 5 15.0
2018-Oct-17 02:32 197 0 gusting 4 15.0
2018-Oct-17 02:17 175 0 gusting 4 15.6
2018-Oct-17 02:07 183 0 gusting 4 15.6
2018-Oct-17 02:02 173 15.6
2018-Oct-17 01:47 173 15.6
2018-Oct-17 01:42 173 15.6
2018-Oct-17 01:37 169 15.6
2018-Oct-17 01:32 185 15.6
2018-Oct-17 01:17 176 0 gusting 2 16.1
2018-Oct-17 01:12 198 16.1
2018-Oct-17 01:07 175 0 gusting 2 16.1
2018-Oct-17 01:02 191 0 gusting 2 16.1
2018-Oct-17 00:47 161 1 gusting 4 16.1
2018-Oct-17 00:42 172 16.1
2018-Oct-17 00:37 201 16.1
2018-Oct-17 00:32 170 0 gusting 5 16.1
2018-Oct-17 00:17 178 0 gusting 2 16.1
2018-Oct-17 00:07 179 16.1
2018-Oct-17 00:02 171 16.1
2018-Oct-16 23:47 181 16.1
2018-Oct-16 23:42 175 16.1
2018-Oct-16 23:37 177 16.1
2018-Oct-16 23:17 186 16.7
2018-Oct-16 23:12 166 16.7
2018-Oct-16 22:47 188 16.7
2018-Oct-16 22:37 180 1 gusting 4 16.7
2018-Oct-16 22:32 177 0 gusting 2 16.7
2018-Oct-16 22:17 176 1 gusting 4 16.1
2018-Oct-16 22:12 183 1 gusting 2 16.1
2018-Oct-16 22:08 164 16.1
2018-Oct-16 22:02 184 16.1
2018-Oct-16 21:37 183 15.6
2018-Oct-16 21:32 187 15.6
2018-Oct-16 21:17 183 15.6
2018-Oct-16 21:12 181 15.0
2018-Oct-16 21:07 168 15.0
2018-Oct-16 21:02 168 14.4
2018-Oct-16 20:37 212 14.4
2018-Oct-16 20:17 212 14.4
2018-Oct-16 20:12 212 14.4
2018-Oct-16 20:07 212 14.4
2018-Oct-16 20:02 212 15.0
2018-Oct-16 19:47 212 15.0
2018-Oct-16 19:42 212 15.0
2018-Oct-16 19:37 212 15.0
2018-Oct-16 19:32 212 15.0
2018-Oct-16 19:17 212 15.6
2018-Oct-16 19:12 212 15.6
2018-Oct-16 19:07 212 15.6
2018-Oct-16 19:02 212 15.6
2018-Oct-16 18:47 212 16.1
2018-Oct-16 18:42 212 16.1
2018-Oct-16 18:32 212 16.7
2018-Oct-16 18:17 212 17.2
2018-Oct-16 18:12 212 17.2
2018-Oct-16 18:07 212 17.2
2018-Oct-16 18:02 212 17.8
2018-Oct-16 17:47 212 17.8
2018-Oct-16 17:17 212 18.9
2018-Oct-16 17:12 212 19.4
2018-Oct-16 17:07 212 19.4
2018-Oct-16 17:02 212 20.0
2018-Oct-16 16:47 212 20.6
2018-Oct-16 16:42 212 20.6
2018-Oct-16 16:37 212 21.1
2018-Oct-16 16:32 212 21.1
2018-Oct-16 16:17 212 21.7
2018-Oct-16 16:12 212 21.7
2018-Oct-16 16:07 212 22.2
2018-Oct-16 16:02 189 22.2